Juliana Airport, Sint Maarten

2:40 AM AST on February 25, 2018 (GMT -0400)
Princess Juliana International

Weather History for TNCM - October, 2011

Change the Weather History Date:

Tuesday, October 11, 2011

  Actual Average Record
Temperature  
Mean Temperature 84 °F -  
Max Temperature 87 °F 85 °F 91 °F (2000)
Min Temperature 80 °F 75 °F 75 °F (2002)
Cooling Degree Days 18    
Growing Degree Days 34 (Base 50)    
Moisture  
Dew Point 75 °F    
Average Humidity 75    
Maximum Humidity 84    
Minimum Humidity 66    
Precipitation  
Precipitation 0.00 in 0.15 in - ()
Sea Level Pressure  
Sea Level Pressure 29.90 in    
Wind  
Wind Speed 8 mph ()    
Max Wind Speed 10 mph    
Max Gust Speed -    
Visibility 7.1 miles    
Events Rain    
Averages and records for this station are not official NWS values.
T = Trace of Precipitation, MM = Missing Value Source: Averaged Metar Reports

Daily Weather History Graph

Daily Weather History Graph

Search for Another Location

Airport or City:

Trip Planner

Search our weather history database for the weather conditions in past years. The results will help you decide how hot, cold, wet, or windy it might be!

Date:

Astronomy

Oct. 11, 2011 Rise Set
Actual Time 6:04 AM AST 5:53 PM AST
Civil Twilight 5:43 AM AST 6:15 PM AST
Nautical Twilight 5:17 AM AST 6:40 PM AST
Astronomical Twilight 4:52 AM AST 7:05 PM AST
Moon 5:31 PM AST (10/11) 5:34 AM AST (10/11)
Length of Visible Light 12h 32m
Length of Day
11h 48m
Full, 100% of the Moon is Illuminated
Oct 11
Full
Oct 11
Full
Oct 19
Last Quarter
Oct 26
New
Nov 2
First Quarter

Hourly Weather History & Observations

Time (AST) Temp. Heat Index Dew Point Humidity Pressure Visibility Wind Dir Wind Speed Gust Speed Precip Events Conditions
12:00 AM 82.4 °F 87.2 °F 71.6 °F 70% 29.89 in 6.2 mi East 9.2 mph - N/A   Mostly Cloudy
1:00 AM 80.6 °F 85.4 °F 73.4 °F 79% 29.89 in 6.2 mi East 10.4 mph - N/A   Mostly Cloudy
2:00 AM 81 °F - 73 °F 71% 29.87 in 19 mi East 8.1 mph - -   Scattered Clouds
2:00 AM 80.6 °F 85.4 °F 73.4 °F 79% 29.86 in 6.2 mi East 8.1 mph - N/A   Partly Cloudy
3:00 AM 80.6 °F 85.4 °F 73.4 °F 79% 29.86 in 6.2 mi East 5.8 mph - N/A   Partly Cloudy
4:00 AM 80.6 °F 85.4 °F 73.4 °F 79% 29.83 in 6.2 mi East 9.2 mph - N/A   Partly Cloudy
5:00 AM 80.6 °F 85.4 °F 73.4 °F 79% 29.86 in 6.2 mi East 8.1 mph - N/A   Partly Cloudy
6:00 AM 80.6 °F 86.2 °F 75.2 °F 84% 29.86 in 6.2 mi East 8.1 mph - N/A   Partly Cloudy
7:00 AM 82.4 °F 89.5 °F 75.2 °F 79% 29.89 in 6.2 mi East 8.1 mph - N/A Rain Light Rain Showers
8:00 AM 84 °F - 75 °F 67% 29.92 in 37 mi East 10.4 mph - - Rain Light Rain Showers
8:00 AM 84.2 °F 92.3 °F 75.2 °F 74% 29.92 in 6.2 mi East 10.4 mph - N/A   Scattered Clouds
9:00 AM 86.0 °F 95.1 °F 75.2 °F 70% 29.92 in 6.2 mi ESE 8.1 mph - N/A   Partly Cloudy
10:00 AM 84.2 °F 90.9 °F 73.4 °F 70% 29.95 in 6.2 mi ESE 9.2 mph - N/A   Mostly Cloudy
11:00 AM 85 °F - 75 °F 66% 29.94 in 37 mi ESE 9.2 mph - -   Scattered Clouds
11:00 AM 86.0 °F 95.1 °F 75.2 °F 70% 29.92 in 6.2 mi ESE 9.2 mph - N/A   Partly Cloudy
12:00 PM 86.0 °F 95.1 °F 75.2 °F 70% 29.92 in 6.2 mi SE 10.4 mph - N/A   Partly Cloudy
1:00 PM 86.0 °F 96.9 °F 77.0 °F 74% 29.89 in 6.2 mi SE 9.2 mph - N/A   Scattered Clouds
2:00 PM 86.0 °F 95.1 °F 75.2 °F 70% 29.89 in 6.2 mi SE 9.2 mph - N/A   Partly Cloudy
3:00 PM 87.8 °F 97.6 °F 75.2 °F 66% 29.86 in 6.2 mi ESE 5.8 mph - N/A   Partly Cloudy
4:00 PM 86.0 °F 93.4 °F 73.4 °F 66% 29.86 in 6.2 mi ESE 5.8 mph - N/A   Scattered Clouds
5:00 PM 82.4 °F 88.2 °F 73.4 °F 74% 29.86 in 6.2 mi ESE 8.1 mph - N/A Rain Light Rain Showers
6:00 PM 82.4 °F 89.5 °F 75.2 °F 79% 29.89 in 6.2 mi East 4.6 mph - N/A   Scattered Clouds
7:00 PM 82.4 °F 89.5 °F 75.2 °F 79% 29.89 in 6.2 mi East 5.8 mph - N/A   Partly Cloudy
8:00 PM 82.4 °F 89.5 °F 75.2 °F 79% 29.92 in 6.2 mi East 8.1 mph - N/A   Partly Cloudy
9:00 PM 80.6 °F 86.2 °F 75.2 °F 84% 29.92 in 6.2 mi SE 10.4 mph - N/A   Scattered Clouds
10:00 PM 80.6 °F 86.2 °F 75.2 °F 84% 29.92 in 6.2 mi East 4.6 mph - N/A   Scattered Clouds
11:00 PM 81 °F - 75 °F 77% 29.95 in 16 mi East 6.9 mph - -   Scattered Clouds
11:00 PM 80.6 °F 86.2 °F 75.2 °F 84% 29.95 in 6.2 mi East 6.9 mph - N/A   Partly Cloudy